Location: Civry
(47.2902°N, 4.6156°E)
Time: 16:06:38
(UTC+00:00)

Resurs 01 Rocket - Pass Details

Date: 09 April 2020
Orbit: 635 x 644 km, 98.0° (Epoch: 28 May)

Event Time Altitude Azimuth Distance (km) Brightness Sun altitude
Exits shadow 20:55:18 19° 216° (SW) 1,502 3.4 -23.4°
Maximum altitude 20:57:37 31° 264° (W) 1,130 3.2 -23.7°
Drops below altitude 10° 21:01:33 10° 327° (NNW) 2,036 5.2 -24.2°
Sets 21:03:59 0° 338° (NNW) 2,952 6.2 -24.5°
